GFSMW_925_spd_132.txt.gz
Wind_Speed
10 13 18 24 27 27 28 26 29 30 32 29 30 29 26 37 27 29 20 18 21 20 20 20 18 18 20 23 21 31 25 22 25 26 20 27 32 34 40 39 37 36 36
8 15 20 25 27 27 31 31 32 31 32 25 25 19 25 24 31 26 28 27 22 24 23 23 22 21 21 23 22 29 31 40 37 21 21 7 10 25 34 36 39 38 39
7 9 16 19 23 25 29 28 30 28 32 29 26 24 22 21 21 26 31 28 26 27 24 22 21 23 22 24 25 19 34 34 43 37 19 4 7 6 19 32 34 37 40
7 10 15 18 21 24 24 25 25 29 26 26 25 24 23 24 25 25 25 28 29 26 23 23 22 24 25 27 28 27 26 35 32 28 39 33 7 5 4 9 30 38 42
7 10 15 18 21 20 21 25 20 23 23 24 23 24 24 24 25 25 26 25 23 21 22 21 23 23 24 27 25 25 30 34 36 38 27 17 19 21 6 4 5 22 33
6 10 14 15 16 19 21 23 20 22 22 23 23 23 24 25 25 26 26 24 23 22 20 21 23 25 24 25 23 22 28 30 42 40 35 30 15 14 12 9 4 9 15
5 6 13 16 17 21 24 23 24 24 25 24 24 25 24 25 23 26 24 24 23 22 21 22 23 24 22 25 29 29 31 27 27 41 37 33 31 33 29 20 10 6 8
5 6 11 14 18 21 24 24 27 26 27 27 27 27 26 27 24 24 25 23 22 22 22 25 27 26 25 23 23 26 30 34 30 17 30 37 41 32 37 21 15 5 1
5 6 12 16 18 20 24 24 24 24 26 28 25 25 27 28 26 24 23 21 21 19 19 21 22 24 24 26 23 22 22 20 20 18 21 28 25 43 46 41 27 12 3
5 6 10 15 18 20 22 24 23 24 26 26 26 26 28 28 27 25 25 24 22 21 18 17 17 17 17 19 21 20 22 20 22 27 27 22 26 28 30 30 30 27 19
2 4 10 15 18 20 23 24 25 24 26 28 29 29 32 30 31 29 28 28 26 27 25 21 19 18 16 8 13 21 20 19 18 19 22 25 23 25 27 27 24 23 25
1 3 10 14 19 21 23 22 22 26 29 29 27 29 31 34 31 31 32 30 31 30 29 28 29 30 27 23 20 14 10 13 12 8 17 19 21 25 24 24 24 23 24
3 3 10 13 16 19 19 21 22 27 27 28 27 31 34 32 32 32 34 35 35 32 32 33 35 36 34 32 30 27 27 27 25 20 16 14 7 8 17 22 22 23 22
2 2 5 9 12 15 17 20 22 26 26 26 26 30 31 30 33 34 34 35 37 36 36 35 36 39 40 38 35 35 33 33 34 31 31 33 30 21 11 7 4 14 22
3 4 4 7 11 13 17 18 21 23 24 24 27 28 28 28 28 30 31 35 36 36 35 40 42 41 42 41 37 39 40 37 36 38 34 37 28 33 35 26 20 11 9
4 4 5 7 10 12 13 15 19 21 21 25 27 30 31 32 32 31 31 31 33 35 38 40 42 43 43 42 41 41 42 41 40 38 37 38 38 31 33 33 39 36 22
6 5 4 6 7 10 11 16 17 19 19 22 27 31 31 33 33 30 30 32 34 34 38 39 41 42 42 38 39 41 44 42 43 43 38 39 42 38 34 35 37 41 40
8 6 6 6 8 10 13 16 18 19 20 21 25 30 30 31 32 33 32 31 31 34 36 38 39 41 46 42 37 36 38 41 45 42 43 40 42 40 37 34 37 37 37
11 9 7 9 10 12 12 17 21 22 23 23 26 25 27 28 31 32 30 30 32 33 33 35 38 40 44 43 39 34 36 35 38 38 42 42 41 38 36 38 32 32 35
14 11 10 11 12 12 13 18 20 24 25 25 27 27 26 29 30 30 29 28 29 30 31 35 38 39 42 43 42 39 34 34 32 32 35 37 38 36 34 35 30 29 29
15 12 12 13 13 13 13 17 16 18 20 25 28 29 29 29 30 30 30 28 26 31 31 31 34 38 39 39 40 39 37 29 27 30 32 35 33 35 35 35 34 28 28
17 16 16 15 14 12 12 16 17 15 15 20 25 26 29 30 31 33 32 32 30 27 29 29 31 34 36 36 34 34 33 30 32 29 29 30 30 31 36 37 33 33 35
18 17 18 16 14 13 11 15 14 13 15 18 19 18 21 28 29 32 31 26 28 26 24 28 28 29 31 33 34 31 30 30 31 26 24 27 31 32 37 33 33 39 37
18 18 18 16 15 13 13 13 13 12 15 18 19 18 22 21 24 29 30 28 24 24 25 24 26 26 29 32 32 34 34 33 32 33 34 31 33 37 36 39 40 37 34
17 17 16 16 15 14 13 11 11 12 16 17 18 19 20 19 20 24 25 27 26 26 26 27 26 25 26 28 27 29 31 29 28 31 34 35 32 32 33 33 35 37 35
19 17 15 16 15 14 13 11 10 11 14 14 16 16 17 19 20 21 21 20 19 20 21 21 22 22 22 22 24 25 26 27 24 33 32 29 28 27 26 27 27 31 33

GFSMW_925_spd_135.txt.gz
Wind_Speed
9 12 15 17 18 19 21 21 23 22 25 23 25 19 20 23 18 18 17 18 19 16 20 21 20 18 16 13 14 17 22 23 29 20 22 26 29 25 29 33 33 28 27
10 15 18 19 20 20 22 23 23 22 23 21 21 17 22 17 22 18 20 20 18 19 19 19 20 18 18 16 16 17 20 26 24 24 22 8 13 22 26 27 29 33 29
8 11 15 17 18 21 22 23 22 24 22 23 22 21 21 20 21 23 23 22 23 22 20 20 21 20 19 21 17 18 21 18 27 34 21 7 11 5 11 28 31 31 31
6 9 13 16 17 19 18 21 20 22 21 22 23 23 23 25 25 26 26 28 23 23 22 21 21 21 19 22 22 19 22 24 21 22 33 41 12 4 10 12 26 29 31
6 7 10 13 13 16 17 19 19 20 21 21 21 22 23 24 26 27 28 29 26 23 22 22 23 22 20 21 23 24 21 22 26 24 24 28 26 27 4 3 5 18 28
5 7 8 11 13 15 17 18 20 20 21 21 21 21 22 24 26 26 27 25 26 26 24 23 23 23 22 22 23 24 25 24 25 29 24 27 20 16 10 11 5 10 14
4 7 10 14 15 17 19 19 20 21 21 22 21 21 21 22 24 24 24 27 25 25 25 25 25 26 25 23 24 25 24 25 23 20 21 24 32 24 22 19 15 10 14
4 6 9 12 13 15 17 18 20 21 22 22 22 20 21 21 22 22 23 22 25 26 26 25 26 26 25 29 27 25 23 20 25 24 25 22 25 31 33 28 15 9 14
4 6 8 10 12 14 16 18 19 20 21 23 22 21 21 22 21 20 20 21 23 26 24 22 21 21 24 21 25 25 21 21 21 21 18 17 19 28 29 28 26 17 10
2 5 7 10 11 12 14 16 18 19 20 20 21 21 21 22 21 21 24 25 27 27 25 23 20 17 15 20 13 22 21 19 18 18 21 23 24 21 21 33 33 28 23
1 3 6 8 10 11 14 16 17 19 19 20 20 21 22 24 25 26 29 30 31 30 29 28 25 21 20 22 21 10 14 13 14 13 14 16 17 25 24 20 26 30 31
4 2 3 6 8 11 14 15 16 17 17 18 18 21 23 26 29 30 30 32 31 33 33 31 31 29 29 29 28 28 27 28 26 23 20 18 11 11 16 25 20 23 22
5 3 3 5 8 11 12 15 16 16 17 18 19 19 22 26 29 31 33 33 33 32 36 34 35 35 33 32 32 31 31 33 31 32 30 31 27 21 16 13 12 10 17
5 3 3 4 6 8 11 13 14 16 18 21 19 20 23 26 28 29 31 32 34 36 36 37 36 40 39 36 35 34 33 34 35 33 37 35 36 34 26 21 19 13 11
6 4 3 4 5 8 10 11 12 15 18 20 20 20 21 23 26 29 29 31 34 36 35 38 41 39 42 42 37 35 36 34 35 37 35 37 31 35 38 35 35 24 17
8 6 5 6 7 7 8 10 9 12 16 20 20 19 22 27 26 27 28 31 32 34 37 39 40 41 41 38 38 38 37 39 37 36 36 36 36 33 35 33 43 47 34
10 8 6 6 6 6 7 9 8 10 13 17 18 20 22 26 26 24 28 29 31 33 36 38 39 41 39 34 34 35 38 40 40 37 35 35 36 34 32 34 37 41 41
11 9 9 8 6 6 7 9 9 13 13 13 15 20 25 26 25 26 26 26 26 29 31 34 34 37 40 34 29 29 33 35 37 39 39 39 39 37 35 36 41 40 39
13 12 10 9 8 7 8 11 12 14 14 14 14 16 19 23 25 24 23 22 23 26 28 30 33 33 39 38 33 28 28 30 34 36 42 39 40 38 35 38 32 31 35
15 14 13 11 11 9 11 15 14 15 14 14 13 15 17 19 20 20 21 20 21 23 25 30 32 34 34 38 38 33 27 30 30 32 34 37 38 37 37 37 31 29 28
16 16 15 14 12 11 12 15 17 19 16 16 15 18 18 20 19 20 20 19 21 23 26 29 31 34 37 37 37 36 33 27 27 30 31 34 34 36 35 34 33 26 21
16 17 16 15 13 12 13 15 16 14 15 18 22 23 23 22 23 20 21 21 19 24 24 25 26 29 30 34 35 34 33 28 28 27 28 29 30 31 35 33 29 27 23
16 17 18 16 13 12 12 16 14 13 13 14 16 19 23 24 21 20 19 21 23 23 23 24 24 26 27 27 29 31 29 30 28 26 24 26 29 30 32 33 33 32 28
17 16 17 16 14 13 13 14 14 13 13 14 15 17 18 19 21 20 20 21 22 22 22 22 24 24 26 27 26 25 24 25 23 23 27 26 26 31 29 33 33 31 27
18 17 16 14 14 15 15 14 13 12 13 13 12 12 14 13 14 17 18 19 22 20 19 21 22 22 24 25 24 25 26 22 21 20 22 25 27 27 27 27 29 29 28
19 17 15 15 15 14 13 12 11 11 11 11 10 9 9 10 11 12 14 17 17 19 19 20 19 18 19 19 19 20 22 22 19 23 25 25 25 25 25 25 25 25 25

GFSMW_925_spd_138.txt.gz
Wind_Speed
4 4 6 8 9 11 13 15 17 18 20 19 20 19 19 20 16 19 19 18 19 19 19 19 18 17 19 20 19 20 20 20 19 16 20 25 29 30 28 33 30 30 28
2 5 7 9 11 12 14 17 17 18 19 18 20 19 20 20 21 20 19 21 20 21 21 21 21 20 20 21 21 21 23 23 22 16 13 7 21 27 31 31 28 31 29
2 4 7 9 10 13 14 16 17 18 18 21 20 21 22 20 20 20 22 21 23 24 22 22 23 23 21 23 21 21 22 24 24 26 18 8 11 13 30 33 32 32 29
0 4 7 9 11 13 14 16 16 17 17 19 20 20 21 22 23 24 24 27 25 25 23 22 22 22 22 23 23 21 22 23 26 23 30 34 22 8 13 23 28 32 29
1 4 6 9 10 12 14 14 15 16 18 19 19 21 20 21 23 22 24 25 24 23 22 22 22 23 23 22 22 22 22 24 26 26 26 22 32 35 13 11 15 25 26
1 3 4 6 9 11 13 14 16 16 18 20 21 20 21 23 24 24 24 22 24 23 21 22 22 22 23 24 23 21 21 23 27 28 26 24 10 14 16 14 15 13 21
1 2 5 7 9 11 12 13 15 16 18 19 20 19 20 21 22 23 23 25 23 22 23 25 23 22 22 23 25 23 22 22 23 26 24 22 21 17 25 20 12 12 15
1 3 5 7 9 10 12 13 14 15 17 19 19 18 19 19 19 20 21 19 20 21 25 23 21 20 20 20 22 23 25 23 23 25 28 28 27 26 25 25 16 12 12
3 2 4 6 7 9 10 12 14 14 15 17 18 18 18 19 19 19 18 19 19 22 25 23 20 18 16 15 19 23 24 24 22 23 25 27 27 21 24 24 25 16 12
4 2 2 4 5 7 8 10 12 13 14 16 17 17 18 18 17 17 21 22 22 24 25 27 23 20 16 15 18 10 19 21 20 21 21 22 24 25 23 27 24 32 18
6 4 2 2 4 6 8 10 12 13 15 15 15 16 18 18 19 21 22 23 23 26 27 30 27 25 25 25 24 24 15 13 13 11 9 6 7 8 17 18 27 19 23
7 5 4 1 2 5 7 8 10 12 13 13 14 15 16 19 20 21 23 24 25 28 31 30 32 32 31 31 29 28 28 27 22 21 17 15 9 8 10 9 8 5 12
8 7 6 3 2 4 5 6 9 11 12 12 13 14 17 18 19 20 22 25 27 28 30 34 34 35 35 33 33 30 29 30 29 28 29 27 21 17 14 12 12 12 8
9 7 6 5 3 3 2 5 8 9 10 11 13 14 16 16 17 18 20 24 25 28 30 31 32 36 36 34 34 34 32 31 32 31 32 33 34 30 19 19 16 14 13
10 9 7 6 5 3 2 5 6 8 9 10 12 14 13 14 16 18 20 22 25 27 28 30 32 32 35 38 33 31 35 33 33 35 34 34 30 32 37 31 25 21 20
11 10 10 9 6 4 4 5 6 7 7 11 12 12 13 15 17 18 20 22 24 27 28 31 33 33 34 33 33 33 33 34 34 33 33 33 34 30 32 36 40 40 26
13 12 10 9 7 6 6 6 5 5 6 11 11 12 13 15 17 18 19 22 23 25 30 32 34 37 35 31 31 32 34 36 37 35 34 33 35 27 27 31 33 37 36
14 12 13 12 9 7 7 7 6 6 7 10 10 11 13 14 15 17 19 19 21 24 27 30 31 34 37 32 28 26 28 32 35 38 35 34 36 33 25 25 30 31 35
15 13 14 13 11 9 8 8 7 7 7 9 10 10 11 13 14 17 18 17 19 22 25 27 30 33 35 34 27 23 25 27 30 32 38 35 34 34 29 28 26 27 27
16 17 15 13 12 9 9 9 8 9 9 8 8 10 10 12 13 14 16 16 17 20 22 25 28 28 33 35 33 26 24 27 26 27 31 36 37 35 34 32 28 26 25
18 16 15 13 12 11 11 11 10 9 8 8 9 10 10 12 13 13 14 15 16 17 18 21 24 26 31 33 33 31 27 24 24 27 28 32 33 36 34 32 30 24 19
18 15 15 13 12 11 12 12 10 10 9 10 11 11 10 10 11 14 15 14 13 15 17 18 20 22 23 27 29 29 28 24 23 24 23 25 27 30 34 33 28 26 22
18 16 15 15 12 10 10 12 11 9 8 9 11 11 10 11 12 12 13 13 14 14 16 17 18 20 21 21 23 24 25 23 22 21 21 22 25 25 27 31 31 30 28
19 18 16 14 13 11 10 11 12 11 10 10 9 8 9 10 10 13 14 15 14 15 16 17 16 17 19 20 21 20 19 19 19 18 19 20 21 24 24 27 29 28 27
21 20 19 16 15 14 12 12 12 11 10 9 9 8 8 9 12 14 14 14 17 17 14 14 16 16 17 19 19 21 21 19 18 16 18 20 22 23 24 24 25 25 25
22 21 19 18 17 16 15 13 12 11 10 9 7 6 7 7 7 9 12 14 14 14 15 16 14 12 14 14 14 15 18 17 16 17 19 20 21 21 22 22 22 23 24

GFSMW_925_spd_141.txt.gz
Wind_Speed
5 3 4 5 6 8 10 13 15 16 18 17 19 20 21 22 22 20 21 20 20 21 20 21 21 20 20 20 20 20 21 23 24 22 20 24 23 25 32 32 31 36 36
6 3 2 4 6 9 10 13 15 17 17 18 20 19 22 23 23 22 20 21 22 22 23 23 24 23 23 22 22 21 22 24 24 21 20 11 17 23 30 35 33 34 35
3 3 1 4 5 8 10 12 13 15 15 17 18 19 22 20 21 21 24 22 23 25 25 25 24 24 24 24 23 22 22 23 24 25 16 9 11 9 22 30 34 32 32
5 2 1 3 5 7 8 10 12 13 14 16 18 20 20 22 23 23 24 26 25 25 23 23 24 23 22 23 23 21 22 24 24 23 26 27 28 11 8 21 35 37 33
3 2 0 2 4 6 8 10 12 13 15 17 19 20 20 21 23 23 24 24 22 23 22 22 22 23 21 21 22 23 24 22 21 24 23 23 23 25 12 12 10 27 32
6 3 1 1 4 7 8 10 12 13 15 18 19 19 20 22 23 23 23 22 24 22 21 21 24 24 23 23 23 23 24 24 24 25 25 23 15 13 10 11 13 14 19
6 3 2 2 3 6 8 10 12 13 15 17 18 19 20 20 21 22 22 24 22 22 22 24 26 24 24 24 24 25 23 23 23 22 25 25 20 17 17 17 9 11 22
7 5 2 0 3 5 7 9 11 13 14 15 16 17 17 18 19 20 21 20 21 22 23 23 22 21 20 20 22 24 24 25 24 23 24 24 27 27 23 19 14 11 9
8 6 5 1 2 4 6 9 11 12 12 13 15 15 16 18 19 19 19 20 20 21 22 22 20 21 18 17 16 18 27 26 24 23 22 22 24 25 27 31 27 17 9
7 6 4 1 2 3 5 7 10 10 11 12 13 13 15 16 17 17 19 20 20 21 23 22 22 21 22 21 18 20 10 22 19 17 19 24 24 23 27 27 28 25 19
8 5 2 3 2 3 5 7 9 10 11 12 12 13 14 15 16 18 20 21 22 23 24 25 24 25 27 26 25 25 28 25 20 14 12 12 10 10 11 14 19 23 19
9 8 6 2 1 2 4 5 8 9 10 11 11 12 13 15 16 18 20 22 24 24 24 25 30 32 30 31 30 29 29 29 27 26 25 25 16 14 13 11 12 10 8
9 7 8 7 4 2 3 5 7 7 9 10 10 11 13 14 16 18 19 21 22 24 25 28 31 33 34 28 32 30 30 31 29 29 28 30 30 26 19 16 12 12 8
10 8 8 8 7 4 3 3 5 6 8 9 10 11 13 14 14 16 17 20 21 24 26 27 28 31 33 34 28 30 28 27 29 29 31 31 33 34 28 24 18 14 12
11 10 9 9 8 6 4 3 3 6 7 8 10 11 12 12 13 16 18 18 21 23 24 27 26 27 31 33 30 29 31 30 29 32 32 33 27 34 36 34 33 24 21
12 12 10 11 9 7 6 4 3 4 6 8 9 10 12 13 14 15 16 18 20 23 26 26 28 28 28 28 29 29 31 31 32 31 31 33 35 29 33 34 39 43 30
12 12 12 11 9 8 7 5 5 4 5 7 9 11 12 13 13 14 16 18 21 22 25 27 26 29 28 25 25 26 29 32 35 34 34 33 35 32 28 30 32 37 36
13 12 14 12 11 9 8 7 6 5 5 6 8 10 12 13 13 14 16 17 19 21 23 25 27 29 34 28 23 23 26 29 33 38 35 34 36 34 28 27 30 31 32
14 12 14 13 12 10 8 8 6 6 6 7 7 9 10 11 12 14 14 15 16 18 20 23 26 28 34 33 27 21 23 24 28 31 38 37 37 34 29 28 26 25 28
16 15 15 14 11 9 9 8 7 7 7 6 7 8 9 11 12 11 12 13 13 15 16 19 22 27 29 34 33 26 21 23 22 24 28 33 34 32 31 29 26 26 25
17 16 13 14 12 10 11 11 9 9 6 7 7 8 9 11 11 10 10 12 13 14 15 16 19 22 28 29 31 30 26 22 22 24 25 28 29 33 31 30 30 25 22
18 16 15 14 12 11 12 12 11 9 8 8 8 9 9 9 10 10 11 11 10 12 13 15 17 19 20 25 25 27 25 21 21 21 21 23 25 27 31 31 29 27 25
19 18 17 16 13 12 12 12 12 10 9 9 9 9 8 8 9 10 9 10 11 12 12 13 15 16 18 20 22 23 23 21 19 18 19 20 23 24 26 29 30 30 29
20 20 19 18 16 13 12 12 12 11 9 8 7 7 7 8 8 10 12 12 12 11 12 14 14 14 16 19 20 20 19 17 16 16 17 18 20 22 23 25 28 29 27
21 22 21 19 18 17 14 14 14 12 10 8 7 7 7 8 10 11 12 11 14 15 11 13 12 14 15 17 16 16 19 17 15 14 16 19 20 21 23 23 24 25 26
22 22 21 20 19 19 17 16 15 13 11 9 8 6 6 5 6 8 9 11 11 11 14 15 14 11 13 15 16 14 14 18 16 15 17 18 19 20 20 21 21 22 23

GFSMW_925_spd_144.txt.gz
Wind_Speed
10 6 5 6 7 10 12 14 15 17 19 20 22 22 23 25 25 24 24 22 25 23 24 23 23 23 24 26 26 26 24 25 23 23 20 23 24 22 25 26 31 36 38
9 7 5 5 5 8 9 11 13 15 15 17 18 19 21 23 22 21 27 26 26 27 26 26 25 22 25 28 28 26 24 22 22 19 18 5 14 24 28 31 30 31 32
11 7 5 4 4 7 8 10 11 12 13 16 16 19 19 20 20 25 23 26 30 29 27 25 25 24 23 24 24 26 26 22 22 22 13 3 5 4 21 30 31 31 32
6 7 6 4 3 4 5 7 9 10 12 14 15 17 18 19 21 22 24 26 25 25 26 24 22 22 24 24 21 22 23 22 20 23 21 24 19 5 5 12 19 25 28
10 8 7 4 3 4 4 5 7 8 11 13 15 16 17 18 20 21 23 23 24 24 24 23 24 24 26 26 26 25 22 24 24 20 19 21 19 21 6 8 11 22 21
9 8 8 5 4 4 4 5 7 8 11 13 14 16 18 20 21 22 22 23 23 24 24 26 26 25 26 25 26 25 23 23 24 24 23 19 9 12 8 3 5 9 17
10 9 9 6 5 4 5 6 8 9 11 12 13 15 17 17 18 22 21 24 24 24 25 28 28 25 25 26 25 26 24 23 24 22 22 23 21 17 16 12 8 6 13
8 7 6 4 4 2 5 7 9 9 11 12 13 14 16 16 17 20 22 23 24 26 28 29 27 25 23 22 21 21 22 23 23 24 22 18 20 23 21 17 11 10 8
10 8 10 5 3 3 6 7 8 9 10 11 12 13 14 15 17 19 21 23 24 27 26 27 25 23 22 21 18 17 19 19 23 19 20 19 19 20 23 22 21 13 10
11 9 9 8 4 4 6 7 7 8 9 11 11 12 13 15 16 20 22 23 25 27 28 26 27 26 25 23 22 23 26 29 24 15 11 8 7 12 22 24 24 23 19
13 10 10 11 6 4 5 5 7 7 9 10 10 12 14 16 17 19 21 24 25 28 28 29 28 30 28 28 29 27 28 29 29 26 24 19 12 10 11 13 9 9 11
13 12 11 10 7 3 4 4 5 6 7 8 9 11 13 14 17 19 18 22 23 24 28 30 32 32 32 30 30 27 30 30 30 29 30 28 20 16 13 12 12 13 12
14 13 12 9 8 6 4 4 4 5 7 8 9 11 13 14 17 18 18 21 23 25 26 26 27 32 34 32 31 31 30 31 31 30 25 31 30 27 25 21 18 15 12
13 12 10 12 10 8 7 6 5 5 7 9 10 11 12 13 15 17 18 20 23 25 25 27 27 27 32 33 31 32 32 30 31 33 33 32 34 35 30 29 26 23 21
13 10 9 11 12 11 9 8 6 6 7 10 11 11 11 11 13 15 17 18 22 25 24 27 28 27 29 31 31 30 31 32 31 33 34 35 30 34 37 36 35 29 26
12 11 10 13 12 12 10 9 9 8 9 11 11 11 12 12 14 15 15 19 21 24 28 28 30 32 27 26 29 29 31 33 34 32 32 33 34 29 32 36 39 41 31
11 11 10 12 13 12 12 12 10 10 9 11 11 11 11 14 15 15 15 17 20 23 25 27 28 31 29 25 24 26 29 31 33 35 33 34 35 32 27 28 30 35 35
10 10 13 14 14 13 12 13 12 10 10 9 8 11 12 14 14 15 15 15 17 20 26 24 26 28 31 25 23 23 26 31 33 34 36 33 35 33 29 26 31 32 34
11 16 16 16 14 15 13 12 12 12 11 9 9 9 11 12 13 13 14 14 14 16 19 24 27 29 32 30 26 22 25 26 30 32 35 37 36 34 30 31 29 29 31
19 19 20 17 16 15 13 14 13 13 11 10 9 9 9 9 10 10 12 14 12 13 15 17 24 26 28 29 29 27 24 25 25 27 30 33 35 34 34 34 29 29 29
22 22 17 22 18 16 15 17 15 13 11 10 9 10 10 10 9 9 8 9 9 11 13 16 19 21 25 25 27 26 25 23 23 24 25 30 29 32 32 32 33 28 24
16 19 20 20 18 15 16 16 15 13 12 12 12 11 10 10 9 9 10 11 9 11 12 14 15 19 21 23 24 24 23 21 21 23 25 24 25 27 30 32 28 27 27
16 16 19 19 17 17 17 18 17 15 14 13 12 11 10 11 10 10 10 10 11 12 13 13 14 16 19 20 20 20 20 19 18 17 19 19 22 23 26 27 31 32 31
18 17 18 17 17 17 16 17 20 17 16 14 12 11 10 9 10 11 9 12 14 13 15 13 14 15 17 20 20 20 21 20 19 15 18 20 19 22 23 24 26 29 28
19 19 18 18 18 18 17 18 19 19 16 13 13 12 11 10 9 14 13 13 15 13 11 14 12 14 15 18 15 16 19 20 20 17 18 20 22 22 23 23 24 25 25
20 20 19 19 19 19 18 17 18 18 16 14 13 12 12 14 12 12 13 12 11 12 13 13 12 11 12 14 15 14 13 18 16 18 19 20 21 22 22 22 22 23 24

GFSMW_925_spd_147.txt.gz
Wind_Speed
16 18 15 11 11 10 12 14 16 17 20 23 23 24 26 24 24 23 26 25 30 32 32 26 25 22 21 23 26 28 25 26 23 23 20 23 24 25 29 27 26 28 31
10 16 16 12 10 10 10 12 14 14 17 18 18 19 18 17 18 24 26 30 32 29 26 28 25 22 21 19 20 21 23 21 20 11 17 5 8 18 26 32 34 33 31
14 10 15 14 12 9 8 10 12 11 15 17 17 19 19 20 21 24 24 28 25 27 25 25 23 24 22 21 20 19 20 21 19 16 7 4 3 5 9 24 29 33 32
13 9 16 15 12 10 8 8 9 8 12 15 16 16 17 16 20 22 25 26 26 24 24 24 24 25 23 23 22 21 21 21 18 18 17 17 13 3 4 4 11 17 24
14 10 16 17 15 12 10 8 8 9 11 13 14 15 17 17 19 22 22 23 24 23 24 25 26 26 25 23 23 23 21 20 21 19 16 18 18 18 4 7 8 10 9
10 14 19 16 17 14 11 8 9 11 11 11 12 15 16 17 20 25 23 25 24 24 25 28 27 26 26 24 26 25 23 21 21 19 19 17 11 6 5 2 5 10 11
12 11 12 16 18 16 12 11 10 12 11 9 11 14 14 15 16 20 23 25 24 26 29 29 28 26 25 24 24 23 21 22 21 20 18 19 18 20 16 11 9 5 12
12 10 14 20 18 17 13 10 10 9 9 8 9 10 12 13 15 18 20 22 22 24 28 28 28 25 25 23 21 18 18 19 20 20 19 20 19 16 15 11 10 9 6
11 12 17 21 19 18 14 9 8 8 9 9 8 10 12 14 15 17 18 22 22 24 29 28 27 29 27 24 22 21 24 23 20 7 9 13 17 18 18 16 14 11 8
12 12 17 22 20 19 12 8 6 6 6 7 7 10 13 14 15 16 19 21 23 25 27 30 30 30 30 29 26 26 25 27 28 22 19 13 8 5 3 8 14 20 17
12 12 17 23 22 16 10 10 6 5 4 5 6 10 13 14 15 17 19 19 21 22 24 28 31 32 31 30 30 28 30 30 29 28 30 24 15 11 9 8 8 10 7
12 11 17 21 17 13 11 10 6 6 5 4 6 10 12 14 17 18 19 19 21 22 22 25 27 30 31 31 32 31 29 30 32 32 26 31 25 22 16 11 9 7 9
12 10 13 15 17 15 13 9 7 7 6 5 7 10 12 14 16 16 18 21 21 23 22 26 28 30 31 30 31 31 31 31 33 35 34 33 34 30 27 22 19 16 14
14 9 8 12 16 15 13 11 8 7 8 6 9 11 12 12 14 15 17 21 22 22 24 26 27 26 31 34 29 31 33 33 34 35 36 35 36 37 31 30 26 24 23
14 12 11 13 17 17 15 12 10 9 8 9 10 12 12 12 14 18 18 20 23 24 23 26 29 28 25 30 32 32 32 35 34 35 34 34 31 34 38 37 36 31 27
14 14 14 19 19 20 18 16 13 11 10 11 12 12 12 14 16 16 19 24 23 28 27 28 30 30 26 23 29 31 33 32 37 33 33 33 34 31 33 35 39 41 32
15 15 15 20 21 22 24 22 17 14 12 12 13 13 15 16 16 16 17 21 26 25 30 30 31 31 26 23 23 29 35 35 33 39 35 34 35 34 30 30 33 36 36
13 12 17 20 25 26 24 20 19 16 14 14 14 15 16 16 14 14 14 15 18 24 26 29 31 31 28 23 21 24 32 36 34 34 40 37 36 33 33 32 36 37 35
11 19 27 29 28 25 26 22 20 19 16 14 14 15 16 15 13 14 14 13 13 17 24 25 28 30 28 25 25 27 29 31 34 32 33 36 35 32 30 34 31 33 35
23 26 29 29 25 27 26 26 25 22 18 16 15 13 12 12 12 13 13 12 11 14 18 21 23 24 26 23 23 26 29 30 28 32 32 31 31 30 30 33 29 30 30
26 30 29 28 29 27 28 27 26 22 19 18 16 14 12 11 10 9 8 9 11 13 16 17 19 20 21 21 20 20 22 25 26 28 29 27 27 29 30 30 31 27 28
19 27 28 27 26 26 26 25 21 20 18 17 17 16 14 12 12 12 11 9 10 13 13 14 17 19 19 19 19 18 18 17 21 23 23 24 24 25 28 30 26 25 29
18 22 27 25 22 21 22 24 22 21 19 19 19 17 14 11 9 10 10 14 14 14 14 13 14 17 19 21 20 18 19 17 18 19 19 19 22 25 24 27 30 32 29
16 20 23 22 21 19 19 21 23 23 22 21 19 18 15 15 11 10 10 13 13 14 13 13 13 14 17 18 17 20 21 19 18 17 20 22 22 23 24 25 30 31 31
18 21 19 19 23 22 21 23 25 24 23 21 19 16 15 16 14 13 13 13 11 10 13 13 13 14 15 14 12 13 16 16 17 18 21 24 24 25 26 27 28 28 28
21 19 19 20 24 24 24 25 26 26 24 20 19 18 16 17 17 18 16 12 14 14 13 10 8 10 11 11 11 11 14 14 14 20 23 24 23 21 22 22 24 25 26